Theta_e
325 321 318 317 305 303 301 304 309 308 308 313 317 315 315 318 316 311 331 337 340 339 340 344 346 345 344 345 347 347 346 346 345 344 344 345 344 344 343 344 341 338 338 338 338 338 338 336 336
324 320 316 312 301 298 300 306 306 310 313 316 315 314 315 315 324 326 328 337 339 339 341 342 343 345 344 345 346 346 346 345 344 341 341 344 344 343 343 343 341 339 337 337 337 336 335 334 334
327 321 310 307 302 299 299 305 309 313 315 315 314 319 319 319 325 327 333 337 338 338 339 341 343 345 345 345 345 345 344 339 340 340 341 343 343 340 340 342 342 339 337 337 336 335 333 332 333
321 315 310 301 300 302 302 306 313 311 310 314 313 314 322 328 326 332 335 336 337 338 338 341 343 345 345 345 344 342 342 340 341 337 339 341 341 341 339 340 340 338 335 336 336 334 333 332 331
321 312 302 300 302 302 303 308 314 310 310 312 311 312 317 329 331 334 333 335 336 336 336 339 343 344 345 344 343 342 341 341 339 338 336 337 339 340 339 337 337 334 334 335 335 334 332 331 330
313 310 300 298 302 304 304 306 310 310 311 312 308 315 318 329 330 331 334 333 338 336 336 337 335 339 342 342 342 341 340 338 337 337 336 335 337 340 338 336 335 335 335 334 334 333 332 331 330
311 307 301 302 304 302 304 308 307 309 309 310 311 312 320 325 330 332 333 335 338 338 335 334 335 335 335 337 338 338 338 339 339 339 338 336 334 334 337 336 334 334 334 333 333 332 331 330 329
312 310 303 304 303 303 307 309 311 309 309 315 315 312 313 326 331 332 332 333 336 337 334 332 332 334 335 334 331 333 335 335 335 334 332 331 331 332 332 331 333 332 332 331 331 330 330 329 328
313 303 300 303 304 305 308 306 308 310 311 311 315 318 324 330 332 330 328 329 332 335 335 331 330 331 334 334 327 328 330 330 329 329 327 326 328 328 329 328 332 332 331 330 329 328 327 328 326
304 303 304 309 307 303 307 307 307 305 309 311 315 325 328 330 329 326 325 324 325 330 333 331 328 328 330 334 331 329 330 329 329 327 326 327 326 327 327 323 326 329 329 329 327 326 327 323 321
306 305 310 305 304 303 306 305 309 305 305 310 312 322 324 326 327 325 325 325 324 328 333 332 327 327 327 327 328 328 327 329 330 329 328 326 325 323 323 319 318 318 321 322 323 322 322 321 321
305 307 303 306 304 303 302 307 304 306 302 308 317 324 323 323 324 324 323 324 324 325 331 334 328 326 326 327 327 326 325 326 327 328 328 325 324 323 322 321 321 320 320 319 320 321 321 321 322
306 304 301 304 305 302 304 301 304 304 307 309 322 322 322 322 324 326 325 324 324 324 327 333 331 326 326 326 326 325 323 324 326 327 328 327 324 322 322 321 322 322 322 321 321 321 322 322 323
310 307 301 303 301 301 301 301 301 303 306 308 320 320 322 323 324 324 323 322 322 324 324 331 332 331 328 325 324 324 324 324 323 324 325 326 325 323 322 322 323 323 323 322 322 321 321 321 321
310 302 304 303 302 299 300 298 297 303 306 307 316 318 322 323 324 324 325 323 323 323 325 327 332 332 329 327 327 323 323 324 324 325 327 326 326 325 323 324 323 323 323 323 322 321 321 320 320
302 301 295 302 299 298 298 298 304 305 304 305 309 313 319 322 324 325 327 325 324 321 324 327 331 332 330 327 326 326 324 322 324 326 327 327 327 325 323 324 324 324 323 322 321 321 319 318 318
299 293 294 298 302 297 295 297 304 301 302 303 305 309 315 318 322 325 327 326 325 321 322 325 328 329 329 328 326 327 325 323 324 325 327 327 327 326 324 324 324 324 323 321 321 319 318 317 319
294 297 296 297 298 298 295 297 298 299 300 301 302 306 311 314 319 323 325 327 327 322 321 324 326 328 328 328 327 327 325 324 324 324 326 328 327 327 325 325 326 325 323 321 320 318 319 319 320
302 301 299 302 302 298 296 298 301 304 300 299 300 301 307 313 317 320 324 326 327 320 317 321 324 326 328 326 324 323 324 324 324 324 326 328 328 327 325 324 325 326 322 321 320 320 318 320 321
303 300 301 301 301 300 300 299 303 305 305 303 301 301 302 307 312 317 320 324 326 322 319 319 323 324 325 325 325 323 323 324 324 325 326 328 328 327 324 325 324 325 322 322 321 318 318 320 320
302 300 301 299 296 296 294 295 298 303 306 307 308 305 303 303 308 312 318 321 325 325 323 319 320 322 323 324 325 323 323 323 323 323 325 328 328 327 325 324 323 323 323 323 323 319 319 317 317
297 300 300 295 294 291 296 288 297 302 302 305 307 306 304 302 304 310 317 319 324 326 327 326 322 321 322 323 322 321 321 321 324 325 326 328 329 328 327 325 324 323 322 322 323 321 320 320 315
297 298 293 292 290 290 288 286 292 296 300 302 305 306 306 304 302 305 313 319 323 326 327 328 328 325 323 323 323 322 322 325 326 327 326 328 328 328 328 327 325 324 325 324 321 320 319 319 316
296 293 292 290 290 284 290 288 289 294 297 299 303 306 307 306 304 303 309 316 319 323 326 328 328 328 328 325 323 325 324 326 325 326 326 328 328 328 328 327 326 326 326 323 322 319 319 319 317
295 293 284 283 282 283 287 287 292 298 300 297 299 300 303 306 304 302 303 309 314 318 322 325 327 327 329 329 328 327 328 328 327 327 327 327 327 327 327 326 325 325 325 323 319 318 317 317 316
292 293 284 279 279 281 282 283 289 297 297 295 296 299 296 297 303 301 302 304 311 315 319 322 322 325 327 328 329 330 329 329 329 328 329 328 328 327 327 326 325 321 315 314 315 314 313 312 311
291 290 291 282 276 279 283 287 293 296 295 295 294 294 293 294 297 298 300 301 303 308 313 318 320 321 322 325 328 329 329 329 329 329 329 329 329 327 321 322 320 314 312 310 310 309 307 306 301
295 296 287 286 276 275 282 282 285 289 291 294 293 295 296 296 297 297 297 299 300 301 303 306 312 315 319 319 323 326 328 329 329 329 327 328 328 325 321 318 317 311 309 309 308 303 301 299 297
289 289 290 291 287 279 278 283 289 292 291 291 293 294 294 294 294 296 296 297 298 298 298 300 301 303 306 312 315 319 323 325 326 327 325 322 320 318 317 314 310 308 307 306 303 300 297 295 293
293 292 292 286 283 285 283 283 291 292 292 292 292 293 293 295 295 295 296 297 297 297 298 298 299 301 302 304 306 310 315 317 318 318 318 318 314 311 312 309 308 305 304 302 300 297 295 294 292
Wind_Speed
15 13 3 2 1 2 4 4 6 7 6 3 8 7 12 10 6 7 7 14 15 14 11 10 12 12 13 12 12 13 14 14 15 16 14 16 17 18 17 16 16 18 19 19 19 19 19 18 18
9 14 1 4 3 4 3 7 4 9 7 7 4 1 6 6 5 8 5 14 12 14 12 10 10 12 13 11 11 12 12 13 15 14 14 14 17 18 16 16 18 17 19 19 19 19 19 18 17
13 10 2 2 4 3 4 1 12 9 7 6 4 6 6 4 4 8 7 12 13 13 11 10 10 13 12 12 11 12 13 12 14 12 14 15 18 19 16 17 19 16 18 18 18 18 18 17 16
5 2 4 2 8 4 6 6 13 8 1 3 2 9 6 6 5 7 9 12 14 12 12 9 10 11 11 13 14 14 12 13 12 13 13 15 17 17 16 16 18 16 16 16 16 17 17 17 16
4 4 3 5 10 6 5 5 10 8 8 6 3 6 6 5 3 11 10 9 14 12 12 9 10 10 13 14 16 13 12 13 13 13 13 12 14 16 16 15 17 15 14 14 15 15 15 16 15
4 3 4 5 9 6 5 2 4 7 6 7 2 8 5 5 4 9 11 11 13 11 11 9 9 8 15 15 14 12 14 14 11 14 14 12 10 13 16 16 14 14 13 13 13 14 14 14 12
3 6 6 9 8 6 5 4 5 6 6 6 3 6 5 5 8 7 6 14 12 11 11 8 8 9 11 11 13 12 11 12 13 15 12 11 10 11 13 13 13 12 12 12 12 12 11 11 10
4 4 10 10 9 0 6 6 3 5 6 5 4 6 6 12 5 9 5 12 12 10 9 10 9 8 9 7 9 12 11 13 14 14 11 12 10 11 12 10 9 11 10 10 9 9 9 9 7
6 4 7 12 6 1 7 4 2 3 6 2 4 5 12 16 9 7 5 7 11 8 6 8 7 9 10 8 7 8 11 12 11 9 11 10 5 6 7 8 7 8 9 8 7 5 5 4 5
3 4 8 5 5 4 8 6 7 4 8 5 7 13 16 15 11 13 12 8 4 9 9 7 7 8 9 9 6 6 7 5 5 5 6 3 5 5 7 6 7 6 6 5 4 2 2 3 3
1 11 6 2 7 7 1 3 7 5 7 9 12 13 14 13 12 11 13 11 8 6 8 7 7 7 8 7 4 4 3 4 5 7 4 6 4 4 4 3 3 4 5 3 3 2 1 5 4
4 2 6 2 3 3 2 3 4 6 2 4 15 19 17 14 16 15 12 12 13 8 8 8 8 6 7 5 4 5 4 4 3 4 6 4 3 4 4 3 4 3 3 2 1 2 1 3 3
6 3 1 5 2 4 4 4 5 8 5 6 20 18 17 17 14 15 11 11 11 11 8 9 7 7 6 6 4 4 5 4 4 4 5 5 5 3 3 3 3 3 2 3 2 3 2 2 1
11 8 5 1 3 2 2 5 3 7 5 8 15 15 14 17 13 12 12 11 12 12 8 11 7 6 7 5 5 5 5 6 5 4 4 5 5 4 3 3 3 3 2 1 1 2 1 2 1
3 7 2 5 4 3 2 4 6 10 7 9 12 12 14 14 11 12 14 10 13 11 11 9 8 5 4 5 2 5 4 5 5 5 7 5 4 6 5 4 3 3 2 2 2 2 2 2 3
8 3 4 6 7 4 4 11 10 10 8 9 10 10 13 15 13 11 13 12 10 10 15 12 10 10 7 6 4 3 4 3 3 4 4 7 6 6 4 4 3 4 3 3 3 3 1 2 2
5 4 6 7 15 5 7 4 5 2 6 8 9 10 11 11 13 14 12 14 12 11 12 15 14 14 12 10 5 5 7 5 5 5 5 7 6 6 5 4 4 5 3 3 1 1 1 1 1
11 5 10 8 10 6 6 9 5 8 8 8 8 10 10 10 14 13 11 11 10 11 12 14 13 14 13 9 7 6 5 5 5 5 5 8 6 7 5 5 5 5 3 3 2 3 1 1 1
16 12 10 12 9 7 13 12 13 10 8 8 8 7 9 12 10 10 11 11 11 10 10 14 15 13 11 10 10 8 8 5 4 4 7 8 7 7 6 4 5 5 5 5 5 3 4 3 2
9 14 10 8 6 4 7 14 13 12 11 10 11 9 9 8 10 12 10 10 12 13 12 11 14 14 13 10 8 5 5 4 4 4 6 7 8 8 7 6 6 7 5 6 6 5 3 2 3
15 13 9 6 5 3 4 7 10 9 13 12 11 9 10 10 10 10 13 14 12 13 14 13 15 16 13 12 7 4 3 3 4 5 5 7 8 8 8 8 5 6 5 6 6 6 7 4 3
5 2 7 11 7 2 6 7 7 14 19 18 17 13 13 11 8 11 16 14 16 18 14 16 16 14 13 13 11 13 10 10 9 8 6 7 10 10 11 11 8 6 4 5 6 5 4 4 5
2 9 10 7 5 4 5 3 6 1 13 19 18 17 14 13 12 11 14 18 18 15 15 13 14 16 15 16 14 11 11 8 8 7 9 10 9 11 12 11 10 9 8 9 7 6 7 5 4
13 14 11 7 4 3 7 6 5 5 5 4 7 16 18 13 11 11 10 15 15 14 14 14 15 16 16 16 17 16 16 12 9 10 9 9 9 10 12 12 11 11 10 9 8 7 8 8 4
3 9 4 2 2 6 1 6 13 7 8 1 6 6 7 12 10 10 10 9 11 15 16 14 16 17 16 16 17 19 16 15 14 13 11 12 10 9 12 14 12 11 12 10 8 9 8 8 7
16 3 6 8 6 3 2 8 6 6 6 5 7 7 2 6 7 10 10 8 9 11 13 13 13 16 15 16 17 16 18 12 12 13 11 9 10 11 12 12 12 10 7 7 8 7 6 6 5
6 4 3 7 2 4 6 6 7 12 7 6 6 1 2 3 4 4 5 6 6 7 9 12 13 11 11 14 14 15 15 17 15 15 12 10 11 9 8 9 9 8 9 9 9 5 6 7 6
7 8 5 1 6 5 5 4 6 4 6 6 6 8 7 6 5 3 2 5 5 7 7 6 7 8 9 8 11 13 15 15 16 13 14 13 10 10 11 11 10 9 9 10 10 7 6 8 5
6 6 4 6 4 5 0 5 4 7 5 3 7 5 5 5 3 2 3 3 3 1 3 6 7 8 8 8 7 8 10 11 10 11 9 7 6 9 12 12 11 10 10 10 10 9 9 9 7
4 8 4 5 5 3 4 7 5 7 6 5 6 5 5 6 4 1 1 2 4 4 4 5 4 6 6 5 6 5 4 4 6 6 6 4 5 5 10 10 10 11 11 12 13 12 11 12 11
Wind_Direction
317 317 312 304 305 191 235 100 81 91 98 15 40 20 94 50 21 105 182 99 113 116 123 110 112 108 100 95 93 102 104 98 96 92 93 92 86 83 84 87 84 80 77 75 72 71 70 68 66
314 306 295 285 251 252 57 117 143 95 90 93 105 309 55 80 55 115 89 127 123 127 122 114 118 109 99 91 94 95 101 96 83 90 96 93 92 84 75 85 89 80 77 75 74 72 68 67 68
293 261 298 225 261 309 107 201 98 94 124 156 105 45 32 82 127 144 127 128 117 103 99 113 103 105 100 91 90 85 89 98 100 104 97 90 92 90 73 71 82 77 80 75 75 71 69 68 67
320 273 266 265 267 64 57 103 110 119 8 327 88 91 78 38 143 109 160 105 105 108 100 103 100 105 114 102 94 88 95 105 96 102 89 89 88 92 86 75 77 78 78 79 77 76 74 71 66
249 261 268 214 258 105 76 23 134 171 152 167 251 119 85 57 56 139 129 139 111 109 110 108 100 102 119 120 101 95 92 98 94 94 96 99 86 93 89 77 78 83 82 83 82 79 74 70 64
279 236 250 239 249 119 99 136 169 174 140 85 174 104 110 140 186 158 142 116 111 118 114 120 99 83 113 105 99 100 101 100 108 106 100 101 99 95 102 97 87 87 86 84 83 78 75 72 64
252 273 248 271 277 118 142 160 212 162 138 163 44 96 109 157 185 112 98 113 121 119 123 127 119 97 90 103 110 104 105 100 115 103 97 108 102 98 90 85 90 88 88 85 83 82 82 78 69
308 260 268 264 270 156 106 158 319 134 95 52 349 149 164 170 179 118 150 131 129 129 134 138 132 136 111 102 100 106 101 97 95 95 96 93 97 92 92 88 90 96 92 90 88 81 84 91 80
319 249 231 244 244 163 135 139 303 22 109 75 49 22 123 146 164 133 144 124 137 138 140 146 157 148 131 123 113 90 103 110 110 120 144 141 155 117 87 90 93 103 99 96 94 98 114 123 124
270 249 229 297 314 6 145 194 144 152 137 124 92 86 116 148 166 155 161 136 156 153 155 148 174 141 141 136 158 133 132 145 139 155 178 204 83 112 106 113 115 109 113 110 121 171 233 226 225
223 244 305 30 8 16 27 209 140 203 175 190 162 140 150 161 165 162 170 153 178 165 148 175 151 146 132 140 168 140 168 171 165 177 150 105 113 127 143 151 166 159 188 186 189 231 359 31 35
217 288 325 62 32 293 309 313 184 206 75 334 155 145 164 173 175 179 189 163 171 180 176 182 149 151 147 150 150 159 149 144 155 151 127 127 161 179 161 170 161 177 170 147 152 93 76 104 98
225 164 255 351 348 278 29 286 237 214 163 45 123 140 172 181 187 181 189 160 167 174 194 161 162 159 162 151 174 158 146 150 169 149 167 173 153 171 162 147 180 157 163 172 152 151 161 130 70
205 168 171 218 326 324 255 227 86 252 156 136 137 156 171 189 196 175 181 169 174 170 194 150 163 193 160 161 181 160 147 173 148 158 189 196 153 160 164 172 169 156 172 133 115 112 111 130 119
167 164 148 210 223 222 245 259 206 262 154 166 155 167 175 189 205 187 185 181 179 171 174 161 158 171 174 135 135 151 167 164 159 168 170 191 163 173 169 179 177 172 149 132 120 192 217 224 193
167 164 170 208 172 220 143 242 226 215 173 184 184 180 176 187 202 201 186 185 178 172 172 169 177 167 172 157 199 182 172 164 177 167 163 173 187 173 191 174 176 159 157 197 205 202 218 208 192
211 176 190 150 196 145 177 229 209 41 179 212 195 198 177 179 189 199 200 180 184 183 168 171 184 186 176 184 183 226 172 175 189 176 166 176 187 188 178 178 189 168 187 205 150 336 171 243 282
155 192 211 205 182 184 190 247 169 185 188 225 246 197 176 184 191 195 202 170 180 189 181 175 184 187 180 179 191 215 189 181 180 181 175 177 181 188 184 187 189 168 183 154 189 200 234 223 224
175 190 183 199 175 153 219 235 235 228 175 203 233 258 195 183 188 184 183 184 192 176 182 181 179 188 180 190 194 197 199 178 192 177 183 183 177 177 196 200 190 174 171 197 192 185 197 227 233
225 188 204 87 145 177 224 240 236 230 237 209 200 215 244 195 180 180 171 186 194 190 188 180 181 187 190 190 191 192 178 180 192 183 192 190 173 172 180 204 204 179 176 203 193 161 187 198 189
209 205 190 130 145 270 340 269 245 242 222 233 230 192 204 210 192 174 177 191 194 196 192 192 194 194 195 187 185 177 170 171 187 199 203 193 174 176 188 203 208 199 182 197 188 169 183 181 212
192 3 91 118 153 223 168 287 226 219 221 219 223 213 205 209 203 178 178 185 195 201 195 196 195 192 194 191 191 196 194 198 197 198 194 194 186 193 203 201 199 199 195 196 198 182 188 164 171
179 99 96 94 84 5 182 277 254 303 211 219 218 225 221 212 201 197 184 190 197 192 199 194 195 198 196 194 199 194 200 205 197 187 193 193 197 204 206 207 196 195 199 211 194 182 188 190 158
152 99 71 62 78 259 196 181 263 225 219 228 197 215 218 211 210 208 195 190 194 186 192 197 202 206 198 196 198 202 204 200 201 199 199 196 202 203 207 200 200 202 202 203 198 185 187 189 162
311 159 88 100 181 224 105 212 246 277 283 291 288 276 239 204 203 197 201 189 189 190 194 195 200 208 206 200 199 205 208 204 205 203 202 194 198 199 204 198 202 207 204 194 170 170 180 176 177
187 239 145 182 184 188 313 235 244 254 259 253 265 237 335 356 210 189 202 201 190 192 196 197 204 212 207 206 209 206 208 209 209 209 207 200 198 199 199 202 204 195 171 157 162 166 167 161 162
184 188 79 107 37 66 204 263 290 264 272 248 257 238 244 322 341 139 167 198 195 193 203 200 202 210 212 214 213 215 210 212 214 211 209 208 199 187 187 188 190 178 165 160 157 165 161 152 146
164 142 90 310 138 228 243 241 229 231 248 233 208 222 202 223 238 194 172 205 204 200 209 214 210 213 220 218 219 219 216 213 217 216 213 209 202 179 179 179 181 173 169 164 163 149 148 144 149
151 177 187 142 169 168 228 258 228 188 163 134 155 126 123 94 69 79 114 107 113 82 204 209 212 217 216 220 228 224 226 227 219 219 219 204 168 166 169 172 165 172 175 171 163 154 155 147 155
234 165 165 160 224 221 133 271 184 158 168 138 125 129 116 102 111 122 144 200 210 217 229 227 228 224 232 231 225 239 244 221 213 208 201 168 171 178 169 163 175 172 178 176 168 162 161 160 166